Previsão horária em Ceber

Hoje, 31 Julho, Sábado

Tempo Temperatura Precipitação Vento Pressão Humidade
00:00 +21°C° 0 mm 1 m/s 749 mmHg 65%
01:00 +19°C° 0 mm 2 m/s 749 mmHg 66%
02:00 +19°C° 0 mm 2 m/s 748 mmHg 69%
03:00 +19°C° 0 mm 2 m/s 748 mmHg 71%
04:00 +19°C° 0 mm 2 m/s 748 mmHg 74%
05:00 +20°C° 0 mm 3 m/s 748 mmHg 71%
06:00 +21°C° 0 mm 4 m/s 749 mmHg 69%
07:00 +22°C° 0 mm 5 m/s 749 mmHg 67%
08:00 +23°C° 0 mm 6 m/s 749 mmHg 61%
09:00 +24°C° 0 mm 6 m/s 749 mmHg 55%
10:00 +26°C° 0 mm 6 m/s 749 mmHg 48%
11:00 +27°C° 0 mm 6 m/s 749 mmHg 44%
12:00 +27°C° 0 mm 7 m/s 749 mmHg 39%
13:00 +28°C° 0 mm 7 m/s 749 mmHg 34%
14:00 +28°C° 0 mm 7 m/s 749 mmHg 34%
15:00 +28°C° 0 mm 7 m/s 749 mmHg 34%
16:00 +28°C° 0 mm 7 m/s 749 mmHg 34%
17:00 +27°C° 0 mm 6 m/s 749 mmHg 38%
18:00 +25°C° 0 mm 5 m/s 749 mmHg 42%
19:00 +23°C° 0 mm 4 m/s 750 mmHg 46%
20:00 +21°C° 0 mm 4 m/s 750 mmHg 52%
21:00 +20°C° 0 mm 3 m/s 750 mmHg 57%
22:00 +18°C° 0 mm 2 m/s 751 mmHg 63%
23:00 +18°C° 0 mm 2 m/s 751 mmHg 65%

Amanhã, 1 Agosto, Domingo

Tempo Temperatura Precipitação Vento Pressão Humidade
00:00 +17°C° 0 mm 2 m/s 751 mmHg 68%
01:00 +17°C° 0 mm 2 m/s 751 mmHg 70%
02:00 +16°C° 0 mm 2 m/s 751 mmHg 72%
03:00 +16°C° 0 mm 2 m/s 751 mmHg 74%
04:00 +16°C° 0 mm 2 m/s 751 mmHg 76%
05:00 +17°C° 0 mm 2 m/s 751 mmHg 72%
06:00 +19°C° 0 mm 1 m/s 750 mmHg 69%
07:00 +20°C° 0 mm 1 m/s 750 mmHg 65%
08:00 +19°C° 0 mm 2 m/s 750 mmHg 63%
09:00 +20°C° 0 mm 2 m/s 750 mmHg 61%
10:00 +21°C° 0 mm 2 m/s 750 mmHg 59%
11:00 +23°C° 0.1 mm 2 m/s 750 mmHg 57%
12:00 +23°C° 0.1 mm 2 m/s 750 mmHg 55%
13:00 +24°C° 0.1 mm 2 m/s 750 mmHg 53%
14:00 +22°C° 0.1 mm 3 m/s 750 mmHg 58%
15:00 +22°C° 0.1 mm 3 m/s 750 mmHg 62%
16:00 +21°C° 0.1 mm 3 m/s 750 mmHg 66%
17:00 +20°C° 0.1 mm 3 m/s 750 mmHg 68%
18:00 +20°C° 0.1 mm 2 m/s 749 mmHg 71%
19:00 +20°C° 0.1 mm 2 m/s 749 mmHg 73%
20:00 +19°C° 0 mm 2 m/s 749 mmHg 76%
21:00 +19°C° 0 mm 1 m/s 750 mmHg 79%
22:00 +18°C° 0 mm 1 m/s 750 mmHg 82%
23:00 +17°C° 0 mm 2 m/s 750 mmHg 80%

Depois de amanhã, 2 Agosto, Segunda-feira

Tempo Temperatura Precipitação Vento Pressão Humidade
00:00 +17°C° 0 mm 2 m/s 750 mmHg 78%
01:00 +17°C° 0 mm 2 m/s 750 mmHg 77%
02:00 +17°C° 0.2 mm 2 m/s 750 mmHg 80%
03:00 +16°C° 0.2 mm 2 m/s 750 mmHg 83%
04:00 +16°C° 0.2 mm 2 m/s 750 mmHg 86%
05:00 +17°C° 0.1 mm 3 m/s 750 mmHg 84%
06:00 +17°C° 0.1 mm 3 m/s 751 mmHg 82%
07:00 +18°C° 0.1 mm 3 m/s 751 mmHg 79%
08:00 +20°C° 0.3 mm 4 m/s 751 mmHg 72%
09:00 +21°C° 0.3 mm 4 m/s 751 mmHg 65%
10:00 +22°C° 0.3 mm 5 m/s 751 mmHg 57%
11:00 +23°C° 0.2 mm 5 m/s 751 mmHg 55%
12:00 +23°C° 0.2 mm 5 m/s 751 mmHg 53%
13:00 +24°C° 0.2 mm 6 m/s 751 mmHg 51%
14:00 +23°C° 0.4 mm 5 m/s 752 mmHg 54%
15:00 +22°C° 0.4 mm 5 m/s 752 mmHg 57%
16:00 +22°C° 0.4 mm 5 m/s 752 mmHg 60%
17:00 +21°C° 0.1 mm 4 m/s 752 mmHg 64%
18:00 +20°C° 0.1 mm 3 m/s 753 mmHg 68%
19:00 +19°C° 0.1 mm 3 m/s 753 mmHg 72%
20:00 +18°C° 0 mm 2 m/s 753 mmHg 75%
21:00 +17°C° 0 mm 2 m/s 754 mmHg 78%
22:00 +16°C° 0 mm 2 m/s 754 mmHg 81%
23:00 +16°C° 0 mm 2 m/s 754 mmHg 82%

3 Agosto, Terça-feira

Tempo Temperatura Precipitação Vento Pressão Humidade
00:00 +15°C° 0 mm 2 m/s 754 mmHg 83%
01:00 +15°C° 0 mm 2 m/s 754 mmHg 83%
02:00 +15°C° 0 mm 2 m/s 755 mmHg 86%
03:00 +14°C° 0 mm 2 m/s 755 mmHg 88%
04:00 +13°C° 0 mm 2 m/s 755 mmHg 90%
05:00 +15°C° 0 mm 2 m/s 755 mmHg 83%
06:00 +16°C° 0 mm 2 m/s 755 mmHg 76%
07:00 +18°C° 0 mm 2 m/s 755 mmHg 69%
08:00 +19°C° 0 mm 2 m/s 755 mmHg 61%
09:00 +21°C° 0 mm 2 m/s 755 mmHg 54%
10:00 +24°C° 0 mm 2 m/s 755 mmHg 46%
11:00 +25°C° 0 mm 2 m/s 755 mmHg 45%
12:00 +25°C° 0 mm 2 m/s 754 mmHg 43%
13:00 +26°C° 0 mm 2 m/s 754 mmHg 42%
14:00 +26°C° 0 mm 1 m/s 754 mmHg 43%
15:00 +26°C° 0 mm 1 m/s 754 mmHg 44%
16:00 +25°C° 0 mm 1 m/s 753 mmHg 45%
17:00 +25°C° 0 mm 1 m/s 753 mmHg 49%
18:00 +24°C° 0 mm 2 m/s 753 mmHg 52%
19:00 +23°C° 0 mm 2 m/s 753 mmHg 56%
20:00 +21°C° 0 mm 2 m/s 753 mmHg 58%
21:00 +20°C° 0 mm 2 m/s 753 mmHg 61%
22:00 +19°C° 0 mm 2 m/s 753 mmHg 63%
23:00 +18°C° 0.2 mm 2 m/s 753 mmHg 68%

4 Agosto, Quarta-feira

Tempo Temperatura Precipitação Vento Pressão Humidade
00:00 +18°C° 0.2 mm 2 m/s 752 mmHg 72%
01:00 +17°C° 0.2 mm 2 m/s 752 mmHg 76%
02:00 +17°C° 0.2 mm 2 m/s 752 mmHg 78%
03:00 +17°C° 0.2 mm 2 m/s 752 mmHg 80%
04:00 +18°C° 0.2 mm 1 m/s 752 mmHg 83%
05:00 +17°C° 0.1 mm 2 m/s 752 mmHg 85%
06:00 +17°C° 0.1 mm 3 m/s 752 mmHg 86%
07:00 +17°C° 0.1 mm 3 m/s 752 mmHg 88%
08:00 +17°C° 1.3 mm 3 m/s 752 mmHg 90%
09:00 +17°C° 1.3 mm 2 m/s 753 mmHg 92%
10:00 +16°C° 1.3 mm 2 m/s 753 mmHg 93%
11:00 +16°C° 1.8 mm 2 m/s 753 mmHg 93%
12:00 +16°C° 1.8 mm 2 m/s 753 mmHg 92%
13:00 +16°C° 1.8 mm 1 m/s 753 mmHg 91%
14:00 +19°C° 0.1 mm 1 m/s 752 mmHg 85%
15:00 +19°C° 0.1 mm 2 m/s 752 mmHg 79%
16:00 +20°C° 0.1 mm 2 m/s 752 mmHg 73%
17:00 +20°C° 0.1 mm 1 m/s 752 mmHg 75%
18:00 +20°C° 0.1 mm 1 m/s 752 mmHg 77%
19:00 +19°C° 0.1 mm 1 m/s 752 mmHg 80%
20:00 +19°C° 0.2 mm 1 m/s 752 mmHg 83%
21:00 +18°C° 0.2 mm 1 m/s 752 mmHg 87%
22:00 +16°C° 0.2 mm 1 m/s 752 mmHg 91%
23:00 +16°C° 0.2 mm 1 m/s 751 mmHg 91%

5 Agosto, Quinta-feira

Tempo Temperatura Precipitação Vento Pressão Humidade
00:00 +16°C° 0.2 mm 1 m/s 751 mmHg 92%
01:00 +16°C° 0.2 mm 1 m/s 751 mmHg 93%
02:00 +16°C° 0.2 mm 1 m/s 751 mmHg 94%
03:00 +16°C° 0.2 mm 2 m/s 751 mmHg 94%
04:00 +16°C° 0.2 mm 2 m/s 751 mmHg 95%
05:00 +16°C° 0.1 mm 3 m/s 751 mmHg 94%
06:00 +16°C° 0.1 mm 3 m/s 751 mmHg 92%
07:00 +16°C° 0.1 mm 3 m/s 751 mmHg 91%
08:00 +16°C° 0.1 mm 3 m/s 751 mmHg 90%
09:00 +17°C° 0.1 mm 4 m/s 751 mmHg 89%
10:00 +17°C° 0.1 mm 4 m/s 751 mmHg 89%
11:00 +17°C° 0.3 mm 4 m/s 751 mmHg 85%
12:00 +18°C° 0.3 mm 4 m/s 751 mmHg 82%
13:00 +19°C° 0.3 mm 4 m/s 750 mmHg 79%
14:00 +19°C° 0.1 mm 4 m/s 750 mmHg 78%
15:00 +19°C° 0.1 mm 4 m/s 750 mmHg 77%
16:00 +19°C° 0.1 mm 3 m/s 750 mmHg 76%
17:00 +19°C° 0 mm 3 m/s 750 mmHg 79%
18:00 +18°C° 0 mm 2 m/s 749 mmHg 82%
19:00 +18°C° 0 mm 2 m/s 749 mmHg 85%
20:00 +17°C° 0 mm 2 m/s 749 mmHg 88%
21:00 +16°C° 0 mm 2 m/s 749 mmHg 91%
22:00 +16°C° 0 mm 2 m/s 749 mmHg 94%
23:00 +15°C° 0 mm 2 m/s 749 mmHg 95%
Mostrar mais

Necessitamos do seu Consentimento

A Meteoprog e os seus Fornecedores de Serviços podem armazenar e aceder a dados pessoais como cookies, identificadores do dispositivo ou outras tecnologias semelhantes existentes no seu dispositivo e processar estes dados para personalizar conteúdos e anúncios, assim como funcionalidades nas redes sociais e análise de tráfego.

  • Armazenar e/ou aceder a informações no seu dispositivo

    Os cookies, identificadores do dispositivo ou outras informações podem ser armazenados ou acedidos no seu dispositivo, para os fins acima indicados.

  • Anúncios e conteúdos personalizados, medição de anúncios e conteúdos, dados sobre o público-alvo e desenvolvimento de produtos

    Os anúncios e os conteúdos podem ser personalizados com base num perfil. Podem ser adicionados dados adicionais para uma maior personalização dos anúncios e dos conteúdos. A eficácia dos anúncios e dos conteúdos pode ser medida. Podem ser obtidas informações sobre o público que visualizou os anúncios e os conteúdos. Estes dados podem ser usados para desenvolver ou melhorar sistemas, softwares ou a experiência do utilizador.

Ao clicar em "Eu concordo”, permitirá o uso de cookies, identificadores do dispositivo e web beacons mencionados ou outras tecnologias semelhantes. As configurações do navegador do seu dispositivo podem ser alteradas.

Para certos fins, podem ser invocados interesses legítimos ao invés de consentimento. Pode ler mais informação sobre este assunto na nossa Política de Privacidade e Cookies.